When you browse on this site, cookies collect data to enhance your experience and personalize the content and advertising you see.
Visit our Privacy Policy to learn more. By continuing to use the site, you agree to this use of cookies and data.
  • In Hungary
  • List of Countries
  • For 7 days
  • Water Temperature
  • Satellite Maps
  • Weather Map
  • News
  • Weather Widgets
  • user-avatar
    Login

    Hourly Weather Akropolis

    Today, 18 July, Thursday

    Time Temperature Precipitation Wind Pressure Humidity
    00:00 +19°C° 0 mm 1 mps 726 mmHg 70%
    01:00 +18°C° 0 mm 1 mps 726 mmHg 71%
    02:00 +16°C° 0 mm 0 mps 726 mmHg 72%
    03:00 +16°C° 0 mm 0 mps 726 mmHg 71%
    04:00 +16°C° 0 mm 0 mps 726 mmHg 70%
    05:00 +19°C° 0 mm 1 mps 726 mmHg 70%
    06:00 +21°C° 0 mm 1 mps 727 mmHg 62%
    07:00 +23°C° 0 mm 1 mps 727 mmHg 54%
    08:00 +25°C° 0 mm 2 mps 727 mmHg 45%
    09:00 +26°C° 0 mm 2 mps 728 mmHg 41%
    10:00 +27°C° 0 mm 2 mps 728 mmHg 37%
    11:00 +28°C° 0 mm 2 mps 729 mmHg 33%
    12:00 +28°C° 0 mm 2 mps 729 mmHg 36%
    13:00 +27°C° 0 mm 2 mps 729 mmHg 38%
    14:00 +27°C° 0 mm 3 mps 729 mmHg 41%
    15:00 +27°C° 0 mm 2 mps 729 mmHg 41%
    16:00 +26°C° 0 mm 2 mps 729 mmHg 41%
    17:00 +26°C° 0 mm 2 mps 729 mmHg 42%
    18:00 +25°C° 0 mm 1 mps 729 mmHg 44%
    19:00 +24°C° 0 mm 1 mps 729 mmHg 47%
    20:00 +23°C° 0 mm 1 mps 730 mmHg 49%
    21:00 +22°C° 0 mm 1 mps 730 mmHg 52%
    22:00 +21°C° 0 mm 1 mps 730 mmHg 55%
    23:00 +20°C° 0 mm 1 mps 730 mmHg 57%

    Tomorrow, 19 July, Friday

    Time Temperature Precipitation Wind Pressure Humidity
    00:00 +19°C° 0 mm 1 mps 730 mmHg 59%
    01:00 +19°C° 0 mm 1 mps 730 mmHg 60%
    02:00 +18°C° 0 mm 1 mps 731 mmHg 62%
    03:00 +18°C° 0 mm 1 mps 731 mmHg 63%
    04:00 +18°C° 0 mm 1 mps 731 mmHg 64%
    05:00 +18°C° 0 mm 1 mps 731 mmHg 64%
    06:00 +20°C° 0 mm 1 mps 732 mmHg 58%
    07:00 +23°C° 0 mm 1 mps 732 mmHg 52%
    08:00 +25°C° 0 mm 2 mps 733 mmHg 46%
    09:00 +26°C° 0 mm 2 mps 733 mmHg 42%
    10:00 +27°C° 0 mm 2 mps 733 mmHg 38%
    11:00 +29°C° 0 mm 1 mps 733 mmHg 33%
    12:00 +29°C° 0 mm 2 mps 733 mmHg 32%
    13:00 +30°C° 0 mm 2 mps 733 mmHg 30%
    14:00 +30°C° 0 mm 2 mps 733 mmHg 28%
    15:00 +29°C° 0 mm 3 mps 733 mmHg 31%
    16:00 +28°C° 0 mm 3 mps 733 mmHg 34%
    17:00 +28°C° 0 mm 3 mps 733 mmHg 37%
    18:00 +26°C° 0 mm 3 mps 733 mmHg 44%
    19:00 +24°C° 0 mm 2 mps 733 mmHg 50%
    20:00 +21°C° 0 mm 2 mps 733 mmHg 56%
    21:00 +20°C° 0 mm 2 mps 734 mmHg 57%
    22:00 +20°C° 0 mm 1 mps 734 mmHg 58%
    23:00 +20°C° 0 mm 1 mps 734 mmHg 59%

    Day after tomorrow, 20 July, Saturday

    Time Temperature Precipitation Wind Pressure Humidity
    00:00 +20°C° 0 mm 1 mps 734 mmHg 59%
    01:00 +19°C° 0 mm 1 mps 734 mmHg 59%
    02:00 +19°C° 0 mm 1 mps 734 mmHg 58%
    03:00 +19°C° 0 mm 1 mps 734 mmHg 58%
    04:00 +19°C° 0 mm 1 mps 734 mmHg 58%
    05:00 +19°C° 0 mm 1 mps 734 mmHg 58%
    06:00 +22°C° 0 mm 1 mps 734 mmHg 51%
    07:00 +24°C° 0 mm 1 mps 735 mmHg 44%
    08:00 +27°C° 0 mm 2 mps 735 mmHg 37%
    09:00 +28°C° 0 mm 2 mps 735 mmHg 35%
    10:00 +29°C° 0 mm 2 mps 735 mmHg 33%
    11:00 +30°C° 0 mm 3 mps 736 mmHg 30%
    12:00 +30°C° 0 mm 3 mps 735 mmHg 30%
    13:00 +31°C° 0 mm 3 mps 735 mmHg 30%
    14:00 +32°C° 0 mm 4 mps 735 mmHg 30%
    15:00 +30°C° 0 mm 4 mps 735 mmHg 33%
    16:00 +29°C° 0 mm 3 mps 735 mmHg 36%
    17:00 +28°C° 0 mm 3 mps 735 mmHg 39%
    18:00 +26°C° 0 mm 3 mps 735 mmHg 44%
    19:00 +24°C° 0 mm 2 mps 735 mmHg 49%
    20:00 +22°C° 0 mm 1 mps 735 mmHg 54%
    21:00 +21°C° 0 mm 1 mps 734 mmHg 54%
    22:00 +21°C° 0 mm 1 mps 734 mmHg 54%
    23:00 +20°C° 0 mm 1 mps 734 mmHg 54%

    21 July, Sunday

    Time Temperature Precipitation Wind Pressure Humidity
    00:00 +20°C° 0 mm 1 mps 734 mmHg 55%
    01:00 +18°C° 0 mm 2 mps 734 mmHg 57%
    02:00 +18°C° 0 mm 2 mps 734 mmHg 59%
    03:00 +18°C° 0 mm 2 mps 733 mmHg 60%
    04:00 +18°C° 0 mm 2 mps 733 mmHg 61%
    05:00 +18°C° 0 mm 2 mps 733 mmHg 62%
    06:00 +21°C° 0 mm 2 mps 734 mmHg 56%
    07:00 +24°C° 0 mm 3 mps 734 mmHg 51%
    08:00 +26°C° 0 mm 4 mps 734 mmHg 45%
    09:00 +28°C° 0 mm 4 mps 734 mmHg 40%
    10:00 +29°C° 0 mm 5 mps 735 mmHg 35%
    11:00 +32°C° 0 mm 5 mps 735 mmHg 30%
    12:00 +32°C° 0 mm 5 mps 735 mmHg 30%
    13:00 +32°C° 0 mm 5 mps 734 mmHg 30%
    14:00 +32°C° 0 mm 5 mps 734 mmHg 30%
    15:00 +30°C° 0 mm 5 mps 734 mmHg 32%
    16:00 +30°C° 0 mm 5 mps 734 mmHg 34%
    17:00 +29°C° 0 mm 5 mps 734 mmHg 35%
    18:00 +27°C° 0 mm 4 mps 734 mmHg 41%
    19:00 +25°C° 0 mm 2 mps 734 mmHg 46%
    20:00 +23°C° 0 mm 1 mps 734 mmHg 52%
    21:00 +22°C° 0 mm 1 mps 734 mmHg 52%
    22:00 +22°C° 0 mm 1 mps 734 mmHg 53%
    23:00 +19°C° 0 mm 0 mps 734 mmHg 54%

    22 July, Monday

    Time Temperature Precipitation Wind Pressure Humidity
    00:00 +21°C° 0 mm 1 mps 734 mmHg 54%
    01:00 +21°C° 0 mm 1 mps 734 mmHg 53%
    02:00 +21°C° 0 mm 1 mps 733 mmHg 53%
    03:00 +21°C° 0 mm 1 mps 733 mmHg 53%
    04:00 +21°C° 0 mm 1 mps 733 mmHg 53%
    05:00 +21°C° 0 mm 1 mps 733 mmHg 53%
    06:00 +23°C° 0 mm 1 mps 734 mmHg 48%
    07:00 +26°C° 0 mm 1 mps 734 mmHg 43%
    08:00 +28°C° 0 mm 2 mps 734 mmHg 37%
    09:00 +29°C° 0 mm 2 mps 734 mmHg 35%
    10:00 +30°C° 0 mm 3 mps 734 mmHg 33%
    11:00 +33°C° 0 mm 3 mps 734 mmHg 31%
    12:00 +31°C° 0 mm 3 mps 734 mmHg 32%
    13:00 +31°C° 0 mm 3 mps 734 mmHg 33%
    14:00 +31°C° 0 mm 3 mps 734 mmHg 34%
    15:00 +30°C° 0 mm 3 mps 734 mmHg 36%
    16:00 +30°C° 0 mm 2 mps 733 mmHg 38%
    17:00 +29°C° 0 mm 2 mps 733 mmHg 41%
    18:00 +28°C° 0 mm 2 mps 733 mmHg 46%
    19:00 +26°C° 0 mm 2 mps 733 mmHg 52%
    20:00 +24°C° 0 mm 2 mps 733 mmHg 58%
    21:00 +24°C° 0 mm 1 mps 732 mmHg 59%
    22:00 +23°C° 0 mm 1 mps 732 mmHg 61%
    23:00 +22°C° 0 mm 1 mps 732 mmHg 62%

    23 July, Tuesday

    Time Temperature Precipitation Wind Pressure Humidity
    00:00 +22°C° 0 mm 1 mps 732 mmHg 61%
    01:00 +22°C° 0 mm 1 mps 732 mmHg 60%
    02:00 +22°C° 0 mm 1 mps 731 mmHg 60%
    03:00 +22°C° 0 mm 1 mps 731 mmHg 60%
    04:00 +20°C° 0 mm 0 mps 731 mmHg 60%
    05:00 +20°C° 0 mm 0 mps 731 mmHg 60%
    06:00 +24°C° 0 mm 1 mps 731 mmHg 54%
    07:00 +26°C° 0 mm 1 mps 731 mmHg 48%
    08:00 +28°C° 0 mm 1 mps 731 mmHg 43%
    09:00 +29°C° 0 mm 1 mps 731 mmHg 39%
    10:00 +31°C° 0 mm 1 mps 731 mmHg 36%
    11:00 +32°C° 0 mm 1 mps 731 mmHg 33%
    12:00 +31°C° 0 mm 2 mps 731 mmHg 35%
    13:00 +30°C° 0 mm 3 mps 731 mmHg 38%
    14:00 +29°C° 0 mm 3 mps 731 mmHg 41%
    15:00 +29°C° 0 mm 3 mps 730 mmHg 44%
    16:00 +28°C° 0 mm 3 mps 730 mmHg 47%
    17:00 +27°C° 0 mm 2 mps 730 mmHg 51%
    18:00 +26°C° 0 mm 2 mps 730 mmHg 56%
    19:00 +24°C° 0 mm 2 mps 730 mmHg 60%
    20:00 +23°C° 0 mm 2 mps 730 mmHg 65%
    21:00 +21°C° 0 mm 2 mps 730 mmHg 66%
    22:00 +22°C° 0 mm 1 mps 730 mmHg 67%
    23:00 +22°C° 0 mm 1 mps 729 mmHg 67%
    Show more